Location: Bagong Pook
(14.2541°N, 120.8791°E)
Time: 01:35:21
(UTC+00:00)

Delta 7925 Rocket - Pass Details

Date: 13 January 2026
Orbit: 645 x 1641 km, 26.3° (Epoch: 15 February)

Event Time Altitude Azimuth Distance (km) Brightness Sun altitude
Rises 10:59:36 0° 257° (WSW) 4,364 9.1 -17.6°
Reaches altitude 10° 11:02:58 10° 261° (W) 3,236 7.9 -18.4°
Maximum altitude 11:10:43 56° 338° (NNW) 1,210 4.4 -20.1°
Enters shadow 11:13:34 32° 41° (NE) 1,563 4.6 -20.8°
